User: anonymous   Login
Location: La Tine
(46.4708°N, 7.0525°E)
Time: 22:26:58
(UTC+00:00)
Language:

CSL-04 Debris - Orbit

View from above orbital plane
View from above orbital plane
View from above satellite
View from above satellite

Ground track
Ground track

The orbit data is extracted from the following two-line orbital elements,

1 25733U 99025D   20328.17082455  .00000125  00000-0  85783-4 0  9995
2 25733  98.9346 357.1123 0014281 228.6532 131.3414 14.16403958112234
Epoch (UTC): 23 November 2020 04:05:59
Eccentricity: 0.0014281
inclination: 98.9346°
perigee height: 827 km
apogee height: 848 km
right ascension of ascending node: 357.1123°
argument of perigee: 228.6532°
revolutions per day: 14.16403958
mean anomaly at epoch: 131.3414°
orbit number at epoch: 11223

The dashed part of the orbit path shows where the satellite is in the earth's shadow,  

DLR